Stations météo

réclame
Mon MeteoGroup
Rodez, France (7552): Température de l'air & dewpoint: 17.01.2020 04:00:00 - 23.01.2020 04:00:00 (CET)Rodez, France (7552): Température de l'air 5cm: 17.01.2020 04:00:00 - 23.01.2020 04:00:00 (CET)Rodez, France (7552): Vitesse du vent & gusts: 17.01.2020 04:00:00 - 23.01.2020 04:00:00 (CET)Rodez, France (7552): Direction du vent: 17.01.2020 04:00:00 - 23.01.2020 04:00:00 (CET)Rodez, France (7552): reduced air pressure: 17.01.2020 04:00:00 - 23.01.2020 04:00:00 (CET)Rodez, France (7552): visibility: 17.01.2020 04:00:00 - 23.01.2020 04:00:00 (CET)Rodez, France (7552): Ensoleillement: 17.01.2020 04:00:00 - 23.01.2020 04:00:00 (CET)Rodez, France (7552): Quantités de précipitations: 17.01.2020 04:00:00 - 23.01.2020 04:00:00 (CET)
Date & Time tt [°C] td [°C] tt 5cm [°C] ff [km/h] ff [knt] fx [km/h] fx [knt] dd ppp [hPa] vv [km] sd [min] rr [mm]
23.01.2020 04:00:00 9,0 0,4 8,1 22 12 46 25 ENE 1023,9 60 0 0,0
23.01.2020 03:00:00 9,3 0,7 8,3 25 14 42 23 E 1024,8 60 0 0,0
23.01.2020 02:00:00 9,2 -0,7 8,1 28 15 42 23 E 1024,9 60 0 0,0
23.01.2020 01:00:00 8,9 -0,2 8,0 22 12 44 24 E 1025,2 60 0 0,0
23.01.2020 00:00:00 10,1 2,0 7,8 30 16 45 24 E 1025,0 60 0 0,0
22.01.2020 23:00:00 8,9 0,3 7,9 23 12 47 25 E 1025,1 60 0 0,0
22.01.2020 22:00:00 9,7 0,8 8,7 26 14 60 33 E 1025,2 60 0 0,0
22.01.2020 21:00:00 10,4 1,5 8,9 39 21 60 32 E 1024,5 60 0 0,0
22.01.2020 20:00:00 9,6 2,7 8,4 24 13 44 24 E 1024,7 60 0 0,0
22.01.2020 19:00:00 9,7 2,3 8,8 32 17 51 28 E 1025,0 60 0 0,0
22.01.2020 18:00:00 9,6 3,6 8,8 29 15 45 25 E 1025,0 60 0 0,0
22.01.2020 17:00:00 9,5 3,9 9,2 26 14 46 25 E 1025,2 60 0 0,0
22.01.2020 16:00:00 9,7 4,3 9,9 29 15 56 30 E 1025,4 60 0 0,0
22.01.2020 15:00:00 9,9 4,5 10,1 35 19 62 34 E 1025,4 50 0 0,0
22.01.2020 14:00:00 9,9 4,9 10,1 37 20 56 30 E 1026,3 60 26 0,0
22.01.2020 13:00:00 9,8 4,8 8,5 32 17 59 32 E 1027,0 60 23 0,0
22.01.2020 12:00:00 8,5 5,2 8,7 32 18 52 28 E 1028,0 54 56 0,0
22.01.2020 11:00:00 7,3 4,8 6,3 30 16 58 32 E 1028,7 60 8 0,0
22.01.2020 10:00:00 7,3 3,3 5,6 30 16 47 26 E 1028,8 60 0 0,0
22.01.2020 09:00:00 7,6 2,3 6,9 23 12 44 24 E 1028,5 57 0 0,0
22.01.2020 08:00:00 7,7 1,1 6,7 21 11 38 21 E 1028,2 60 0 0,0
22.01.2020 07:00:00 7,6 0,8 6,7 16 9 36 19 E 1028,3 60 0 0,0
22.01.2020 06:00:00 7,6 -0,1 6,7 23 13 38 20 E 1028,4 60 0 0,0
22.01.2020 05:00:00 7,6 -0,4 6,6 23 13 39 21 E 1028,4 60 0 0,0
22.01.2020 04:00:00 7,9 -0,3 6,8 20 11 35 19 ENE 1029,1 60 0 0,0
22.01.2020 03:00:00 7,8 -0,2 6,9 18 10 36 20 ENE 1029,6 60 0 0,0
22.01.2020 02:00:00 7,6 -0,6 6,7 18 10 34 18 NE 1030,3 60 0 0,0
22.01.2020 01:00:00 7,5 -0,5 6,8 14 8 32 18 ENE 1030,9 60 0 0,0
22.01.2020 00:00:00 7,7 -0,3 7,0 18 10 32 18 ENE 1031,0 60 0 0,0
21.01.2020 23:00:00 8,3 -0,2 7,4 19 10 38 20 ENE 1030,8 60 0 0,0
21.01.2020 22:00:00 8,4 0,1 6,3 18 10 29 16 ENE 1030,9 60 0 0,0
21.01.2020 21:00:00 7,3 0,9 6,1 13 7 24 13 E 1031,8 60 0 0,0
21.01.2020 20:00:00 7,8 0,7 6,8 15 8 25 14 E 1031,9 60 0 0,0
21.01.2020 19:00:00 8,9 0,3 7,9 16 9 35 19 E 1031,5 60 0 0,0
21.01.2020 18:00:00 9,3 1,2 8,3 13 7 27 15 E 1031,4 60 0 0,0
21.01.2020 17:00:00 9,5 2,1 9,0 17 9 36 19 E 1031,2 60 0 0,0
21.01.2020 16:00:00 9,5 2,6 9,6 22 12 36 19 E 1031,8 58 0 0,0
21.01.2020 15:00:00 9,4 2,9 10,1 26 14 44 24 E 1032,3 50 0 0,0
21.01.2020 14:00:00 9,3 3,3 9,3 28 15 50 27 E 1032,9 47 0 0,0
21.01.2020 13:00:00 8,4 2,4 8,8 31 17 55 30 E 1033,6 60 20 0,0
21.01.2020 12:00:00 8,5 2,7 9,1 34 18 56 31 E 1033,9 60 52 0,0
21.01.2020 11:00:00 7,8 2,5 7,6 35 19 54 29 E 1034,0 60 44 0,0
21.01.2020 10:00:00 5,4 1,9 4,3 17 9 31 17 E 1034,3 53 39 0,0
21.01.2020 09:00:00 4,3 1,2 2,3 19 10 36 20 ENE 1034,4 60 0 0,0
21.01.2020 08:00:00 2,5 -1,3 1,5 15 8 26 14 ENE 1034,7 60 0 0,0
21.01.2020 07:00:00 1,9 -3,0 1,4 8 4 16 8 NE 1035,0 50 0 0,0
21.01.2020 06:00:00 1,9 -3,6 1,7 7 4 17 9 N 1035,2 51 0 0,0
21.01.2020 05:00:00 2,3 -4,0 1,9 10 5 17 9 NE 1035,6 49 0 0,0
21.01.2020 04:00:00 2,5 -4,3 2,2 10 5 20 11 ENE 1036,1 48 0 0,0
21.01.2020 03:00:00 2,5 -4,1 0,8 11 6 16 9 ENE 1036,5 50 0 0,0
21.01.2020 02:00:00 1,6 -4,3 0,6 9 5 14 8 ENE 1036,6 48 0 0,0
21.01.2020 01:00:00 1,8 -4,3 1,0 9 5 13 7 NE 1037,0 50 0 0,0
21.01.2020 00:00:00 1,7 -4,0 1,2 6 3 28 15 NE 1037,3 49 0 0,0
20.01.2020 23:00:00 1,8 -4,1 1,2 6 4 11 6 N 1036,9 54 0 0,0
20.01.2020 22:00:00 1,9 -4,2 1,3 8 4 14 8 N 1037,1 57 0 0,0
20.01.2020 21:00:00 1,9 -4,0 1,3 7 4 12 6 NE 1037,0 57 0 0,0
20.01.2020 20:00:00 2,1 -4,2 1,2 6 4 10 5 NNE 1036,8 53 0 0,0
20.01.2020 19:00:00 2,3 -4,2 1,2 4 2 13 7 N 1036,2 60 0 0,0
20.01.2020 18:00:00 2,8 -4,0 2,1 9 5 14 8 N 1035,7 60 0 0,0
20.01.2020 17:00:00 3,4 -3,6 3,2 9 5 14 8 NNW 1035,5 58 0 0,0
20.01.2020 16:00:00 4,2 -4,8 4,6 8 4 18 10 NNE 1035,5 60 0 0,0
20.01.2020 15:00:00 4,6 -4,9 5,7 10 5 21 12 NE 1035,3 60 20 0,0
20.01.2020 14:00:00 3,7 -5,3 5,3 11 6 19 11 NE 1035,8 58 10 0,0
20.01.2020 13:00:00 3,0 -5,7 3,7 11 6 19 10 NE 1036,2 56 9 0,0
20.01.2020 12:00:00 1,7 -5,5 1,8 9 5 16 9 ENE 1037,0 55 0 0,0
20.01.2020 11:00:00 0,4 -5,0 -1,1 9 5 13 7 NE 1037,3 52 0 0,0
20.01.2020 10:00:00 -1,2 -5,8 -1,9 4 2 13 7 NE 1037,4 57 0 0,0
20.01.2020 09:00:00 -1,5 -6,1 -5,3 9 5 16 8 NE 1036,8 60 0 0,0
20.01.2020 08:00:00 -2,4 -6,8 -9,3 6 4 10 5 NE 1036,3 60 0 0,0
20.01.2020 07:00:00 -3,9 -7,2 -8,7 4 2 7 4 ENE 1035,9 60 0 0,0
20.01.2020 06:00:00 -2,9 -6,9 -8,5 4 2 7 4 N 1035,2 60 0 0,0
20.01.2020 05:00:00 -1,8 -6,9 -6,3 3 1 15 8 ENE 1034,7 60 0 0,0
20.01.2020 04:00:00 -1,2 -6,9 -3,9 9 5 18 10 N 1034,7 60 0 0,0
20.01.2020 03:00:00 0,3 -6,8 -1,5 11 6 29 16 NNE 1034,7 60 0 0,0
20.01.2020 02:00:00 0,5 -6,2 -1,3 14 8 33 18 N 1034,7 60 0 0,0
20.01.2020 01:00:00 0,9 -6,2 -0,7 18 10 41 22 N 1034,9 60 0 0,0
20.01.2020 00:00:00 0,8 -5,5 -0,6 24 13 48 26 N 1035,2 60 0 0,0
19.01.2020 23:00:00 1,2 -5,1 -0,2 26 14 43 23 N 1035,2 60 0 0,0
19.01.2020 22:00:00 1,4 -5,1 -0,2 22 12 45 25 NNE 1034,9 60 0 0,0
19.01.2020 21:00:00 1,5 -5,0 0,0 28 15 51 28 N 1034,7 60 0 0,0
19.01.2020 20:00:00 1,5 -4,8 0,3 28 15 49 27 N 1034,2 60 0 0,0
19.01.2020 19:00:00 1,7 -4,8 0,2 29 15 46 25 N 1033,5 60 0 0,0
19.01.2020 18:00:00 1,6 -4,5 0,4 25 13 45 25 N 1032,9 60 15 0,0
19.01.2020 17:00:00 2,5 -4,3 3,1 29 16 53 28 N 1032,6 44 60 0,0
19.01.2020 16:00:00 2,9 -4,3 5,4 27 15 50 27 N 1032,1 48 60 0,0
19.01.2020 15:00:00 3,6 -4,4 6,4 28 15 51 27 N 1031,3 56 60 0,0
19.01.2020 14:00:00 3,3 -4,0 5,5 27 14 53 28 N 1031,5 60 57 0,0
19.01.2020 13:00:00 3,1 -4,1 5,7 29 15 49 26 N 1031,7 60 60 0,0
19.01.2020 12:00:00 2,6 -4,4 2,5 22 12 36 20 N 1031,8 60 12 0,0
19.01.2020 11:00:00 1,7 -4,4 1,5 22 12 35 19 N 1031,3 57 0 0,0
19.01.2020 10:00:00 1,4 -4,5 0,4 19 11 32 17 N 1030,3 60 0 0,0
19.01.2020 09:00:00 0,8 -4,1 -1,0 15 8 24 13 N 1029,3 60 0 0,0
19.01.2020 08:00:00 0,5 -3,8 -1,0 13 7 19 10 N 1028,4 60 0 0,0
19.01.2020 07:00:00 1,5 -4,0 - 13 7 18 10 N 1027,4 60 - -
19.01.2020 06:00:00 1,3 -4,4 -0,3 3 1 13 7 NW 1026,9 60 0 0,0
19.01.2020 05:00:00 0,8 -3,9 -1,2 6 4 11 6 NNE 1026,6 60 0 0,0
19.01.2020 04:00:00 1,5 -4,0 0,1 7 4 14 7 NNE 1026,2 60 0 0,0
19.01.2020 03:00:00 2,0 -3,9 1,0 5 3 12 7 NNE 1025,7 60 0 0,0
19.01.2020 02:00:00 2,0 -3,7 0,0 4 2 9 5 NNE 1025,3 60 0 0,0
19.01.2020 01:00:00 1,7 -4,0 0,5 7 4 15 8 N 1025,3 60 0 0,0
19.01.2020 00:00:00 1,6 -3,7 0,6 9 5 21 12 NNE 1025,1 60 0 0,0
18.01.2020 23:00:00 2,3 -3,6 1,2 13 7 27 15 ENE 1024,0 60 0 0,0
18.01.2020 22:00:00 2,6 -3,7 1,7 16 9 31 17 ENE 1023,9 60 0 0,0
18.01.2020 21:00:00 3,1 -3,5 1,8 18 10 32 17 E 1023,8 60 0 0,0
18.01.2020 20:00:00 3,8 -2,8 2,8 18 10 31 17 ENE 1023,7 60 0 0,0
18.01.2020 19:00:00 4,4 -2,3 2,8 16 9 24 13 E 1023,6 60 0 0,0
18.01.2020 18:00:00 5,0 -1,5 3,3 12 6 23 13 E 1023,6 60 5 0,0
18.01.2020 17:00:00 6,4 -2,2 5,9 20 11 33 18 E 1023,3 60 49 0,0
18.01.2020 16:00:00 7,3 -0,2 9,2 18 10 31 17 E 1023,6 44 60 0,0
18.01.2020 15:00:00 7,2 -0,8 9,4 17 9 29 15 ENE 1024,4 43 58 0,0
18.01.2020 14:00:00 7,2 0,8 7,7 17 9 27 15 ENE 1025,6 36 51 0,0
18.01.2020 13:00:00 5,9 0,0 9,5 14 8 26 14 ENE 1027,2 19 60 0,0
18.01.2020 12:00:00 6,0 0,5 8,4 6 3 13 7 SE 1029,2 53 60 0,0
18.01.2020 11:00:00 4,2 1,9 3,1 10 6 16 9 SE 1030,5 40 46 0,0
18.01.2020 10:00:00 2,3 1,9 -0,1 8 5 12 7 ESE 1031,5 32 16 0,0
18.01.2020 09:00:00 1,2 0,9 0,1 6 3 9 5 SSW 1032,2 14 0 0,0
18.01.2020 08:00:00 1,2 0,8 -0,1 7 4 10 5 SW 1032,1 16 0 0,0
18.01.2020 07:00:00 2,5 1,9 1,5 3 1 10 5 E 1031,4 44 0 0,0
18.01.2020 06:00:00 2,7 2,1 2,6 4 2 12 6 NNW 1031,7 38 0 0,0
18.01.2020 05:00:00 2,7 2,3 2,1 6 3 12 7 NW 1031,5 30 0 0,0
18.01.2020 04:00:00 2,9 2,0 2,4 10 5 17 9 NW 1032,0 59 0 0,0
18.01.2020 03:00:00 3,0 2,6 2,7 10 5 17 9 WNW 1032,4 51 0 0,0
18.01.2020 02:00:00 3,1 2,7 2,4 10 5 21 11 WNW 1032,6 60 0 0,0
18.01.2020 01:00:00 3,2 2,2 2,7 12 7 37 20 W 1032,9 60 0 0,8
18.01.2020 00:00:00 3,7 3,1 3,1 14 8 28 15 WNW 1032,7 60 0 0,0
17.01.2020 23:00:00 3,8 3,2 3,4 21 11 34 18 W 1032,3 59 0 0,0
17.01.2020 22:00:00 4,1 3,2 4,0 25 13 45 24 W 1031,6 60 0 0,0
17.01.2020 21:00:00 4,5 3,5 4,3 23 13 40 21 W 1031,0 60 0 0,0
17.01.2020 20:00:00 4,7 3,8 4,6 23 12 42 23 W 1030,1 60 0 0,0
17.01.2020 19:00:00 4,9 4,0 4,4 24 13 42 23 W 1029,2 60 0 0,0
17.01.2020 18:00:00 5,1 3,9 - 31 17 50 27 W 1027,9 55 - 0,6
17.01.2020 17:00:00 5,5 4,1 5,0 22 12 40 21 W 1027,1 60 0 0,2
17.01.2020 16:00:00 5,8 4,0 5,8 27 15 39 21 W 1026,5 60 0 0,0
17.01.2020 15:00:00 5,6 4,6 4,7 20 11 39 21 WSW 1026,2 60 0 0,0
17.01.2020 14:00:00 5,0 4,0 4,3 15 8 62 33 W 1026,2 22 0 1,7
17.01.2020 13:00:00 5,5 4,8 5,2 32 18 52 28 W 1025,8 4,1 0 5,2
17.01.2020 12:00:00 7,2 6,6 7,1 10 6 17 9 NNW 1024,8 8 0 0,2
17.01.2020 11:00:00 7,7 7,1 7,2 6 3 22 12 NW 1024,7 19 0 0,2
17.01.2020 10:00:00 8,1 6,6 7,2 22 12 33 18 W 1024,5 32 0 0,0
17.01.2020 09:00:00 7,6 6,5 6,9 4 2 19 11 S 1024,1 31 0 0,0
17.01.2020 08:00:00 7,6 6,8 6,8 13 7 23 12 SSE 1023,9 22 0 0,0
17.01.2020 07:00:00 7,6 6,8 6,8 8 4 18 10 SSE 1024,3 10 0 0,8
17.01.2020 06:00:00 7,7 6,6 6,3 14 8 19 10 ESE 1023,9 14 0 0,6
17.01.2020 05:00:00 7,8 5,8 6,4 5 3 34 18 NW 1024,0 27 0 0,0
17.01.2020 04:00:00 8,0 5,8 6,2 21 11 34 18 ESE 1023,2 35 0 0,0

tt = Température de l'air
td = dewpoint
tt 5cm = Température de l'air 5cm
ff = Vitesse du vent
fx = gusts
dd = Direction du vent
ppp = reduced air pressure
vv = visibility
sd = Ensoleillement
rr = Quantités de précipitations

stations d'obs. à proximité